Wind_Speed
42 42 41 40 39 39 38 37 36 34 33 33 34 34 34 34 33 33 32 32 31 31 32 34 36 40 44 49 51 51 50 49 49 50 49 49 49 48 47 46 44 43 43 42 41 40 38 37 36 34 34 33 31 30 28 27 26 24 23 22 20 19 18 18 17 15 14 14 13 12 12 12 11 11 12 12 11 9 8 8 7 7 7 7 6 5 5 6
42 41 40 40 39 39 38 37 36 34 34 34 35 35 35 35 34 34 34 33 33 33 35 37 40 43 48 51 52 50 48 48 49 50 50 50 49 48 47 46 45 44 43 42 41 39 38 37 36 35 34 33 32 30 28 27 25 24 22 21 20 19 18 18 17 16 15 13 13 12 12 12 12 11 12 12 11 11 9 8 7 7 6 6 5 5 4 4
42 41 40 40 39 39 38 36 35 34 34 34 36 36 36 36 36 36 35 35 34 35 38 41 43 47 50 52 51 48 47 48 48 49 50 50 49 48 48 46 45 44 43 42 41 40 39 37 36 35 34 33 32 31 29 27 25 24 22 20 19 18 18 17 17 17 15 14 13 12 12 11 11 11 11 11 10 11 10 9 8 8 7 6 5 4 4 3
42 41 40 39 38 38 37 36 35 34 34 35 36 37 37 37 37 37 37 36 36 38 42 44 46 49 52 51 48 46 46 47 47 49 50 50 49 49 47 46 46 45 44 42 42 41 39 38 37 36 35 34 33 31 30 27 25 24 22 20 18 18 18 17 16 16 16 15 13 12 12 11 11 11 10 10 9 10 10 10 10 9 8 7 6 5 4 3
42 41 40 38 37 37 37 36 35 35 35 35 37 39 39 39 38 39 39 38 39 41 45 47 49 51 51 49 46 45 46 46 47 49 50 49 49 49 48 46 46 46 45 44 42 41 40 39 38 37 36 34 32 31 29 27 25 23 21 20 18 18 17 17 15 16 16 16 15 14 13 13 12 11 11 10 10 10 10 10 11 10 10 9 7 7 6 5
42 41 40 38 37 37 37 36 36 35 35 35 38 40 41 40 40 40 40 39 42 44 47 49 51 52 49 47 44 44 46 45 46 50 49 49 49 49 49 48 47 46 45 44 43 41 40 39 38 37 35 34 32 31 29 27 25 23 21 19 18 17 16 16 16 16 17 17 17 16 15 14 13 13 12 11 10 10 10 10 11 11 11 10 9 8 7 7
43 42 40 39 38 37 36 36 36 35 35 35 38 41 42 41 41 41 41 41 45 47 49 50 52 51 48 46 43 43 44 43 46 48 48 49 49 49 49 48 47 45 44 44 42 41 40 39 38 37 35 34 32 31 29 27 25 23 21 20 19 18 17 16 16 17 17 17 18 17 16 15 14 14 13 12 11 10 10 10 10 11 11 11 10 9 9 8
44 42 41 40 38 37 37 36 36 35 35 35 37 41 43 42 42 42 42 44 47 49 49 51 51 49 48 45 43 42 42 42 45 46 46 47 48 48 48 48 47 46 45 44 43 43 41 40 39 37 36 34 33 31 29 27 25 23 22 21 20 19 18 17 16 17 17 17 18 18 17 16 16 15 14 12 11 11 11 11 10 11 11 11 11 10 10 10
45 43 41 39 38 37 36 36 36 35 35 34 37 41 43 42 43 43 43 46 49 50 51 51 50 48 47 45 43 42 41 41 43 45 44 45 46 47 47 47 47 46 46 45 44 43 42 41 40 38 37 35 34 31 29 28 26 25 23 22 21 19 18 18 17 16 16 16 17 18 18 18 17 16 15 14 13 13 13 11 11 11 11 11 11 11 11 11
46 44 42 40 38 37 36 36 36 35 34 34 36 41 44 43 44 44 44 49 51 51 52 51 50 48 46 45 43 41 41 41 42 44 43 43 45 46 46 47 47 46 45 45 44 43 43 42 41 40 38 37 35 32 30 28 27 26 25 23 22 20 19 19 17 17 17 17 17 18 18 19 19 17 16 15 15 15 13 12 12 11 12 12 12 12 12 11
47 45 43 41 39 37 37 36 36 35 35 35 36 41 45 43 45 45 45 51 52 51 52 50 49 47 45 45 43 41 42 42 41 43 44 43 44 45 47 47 47 47 46 45 45 45 45 44 43 41 40 38 35 33 30 29 28 27 26 24 23 22 21 20 19 19 18 18 19 19 19 20 20 18 17 17 16 16 14 13 13 13 13 13 13 12 12 12
48 46 44 42 40 38 37 37 37 36 35 35 37 41 45 45 46 46 47 52 53 52 52 51 50 48 45 45 42 41 42 43 42 43 44 44 45 45 46 47 47 47 47 46 47 46 46 45 44 42 40 38 35 33 32 30 29 27 26 24 23 22 21 21 21 20 19 19 20 20 20 20 20 20 18 17 17 17 16 15 15 14 14 13 13 13 13 12
49 47 46 43 42 40 38 38 37 37 35 35 37 40 45 46 47 48 47 54 54 52 53 51 50 48 46 44 42 42 43 44 43 43 44 45 45 45 46 47 48 48 47 47 48 48 47 46 45 43 41 39 37 35 33 31 30 28 26 25 23 22 21 21 21 21 19 19 21 21 21 21 22 21 18 18 18 19 19 17 16 14 14 14 14 14 14 13
50 49 47 45 43 41 40 38 38 38 36 36 37 40 44 47 48 48 48 55 56 53 53 52 51 50 47 44 44 45 44 44 44 43 44 45 46 46 46 48 48 48 49 49 49 49 48 47 45 44 42 40 38 36 34 33 31 29 28 26 25 23 22 22 23 22 21 21 22 23 22 22 23 21 19 20 20 20 20 17 16 14 15 16 16 16 15 15
51 50 48 47 45 43 41 40 39 39 38 38 38 40 44 46 48 49 48 55 58 54 53 52 52 52 48 45 46 47 45 44 44 43 43 44 46 47 47 49 49 49 50 50 50 50 49 48 46 44 42 40 39 37 36 34 33 31 30 28 26 24 23 23 24 23 23 23 23 24 22 22 24 23 21 21 21 21 20 18 16 15 16 17 17 17 16 16
52 51 50 47 46 44 43 41 40 39 39 39 39 40 43 46 48 49 48 54 59 56 53 51 51 52 49 46 47 48 47 45 45 44 44 44 45 46 47 49 50 50 51 51 51 51 50 49 47 45 43 41 40 38 37 36 35 33 30 28 27 26 25 25 25 25 24 24 24 25 23 23 25 24 23 23 22 22 21 18 17 16 16 17 17 17 17 16
52 52 50 48 47 45 44 43 41 40 40 40 40 40 43 45 47 49 49 53 60 58 54 50 49 52 51 49 49 48 47 46 45 45 44 45 45 45 46 47 49 50 51 51 51 51 50 49 48 46 44 43 41 40 39 37 35 32 30 29 27 27 27 27 28 27 26 25 25 25 24 24 26 26 25 24 24 23 22 20 18 17 17 17 17 17 18 17
52 52 50 49 48 46 45 44 43 41 41 41 41 40 42 44 46 50 50 53 61 60 57 54 51 54 55 53 51 48 47 45 45 45 45 45 45 45 46 46 47 48 49 51 51 50 50 49 48 47 46 44 42 41 39 35 32 31 31 30 30 30 30 29 29 28 27 26 26 26 25 25 27 27 26 25 25 24 23 21 19 18 18 18 18 19 19 18
52 52 51 50 49 47 47 46 44 43 42 42 43 41 42 44 46 50 51 52 60 63 61 60 56 55 55 53 51 48 47 46 45 45 45 45 46 45 45 46 46 47 48 49 50 50 50 49 49 48 46 44 41 39 37 35 34 34 34 33 33 33 32 31 30 29 28 28 28 28 26 27 28 27 27 27 26 25 24 23 21 20 20 20 20 21 20 19
53 52 52 51 50 49 48 47 46 44 43 43 43 42 42 45 47 51 52 51 58 64 62 60 56 54 53 51 50 48 46 46 45 44 45 45 46 46 46 46 46 47 48 48 49 50 50 50 49 46 44 41 40 39 39 38 38 37 36 36 35 34 33 32 32 31 30 30 29 29 28 27 28 28 28 28 26 25 24 24 22 22 22 22 22 22 21 20
53 53 53 52 51 50 50 49 48 46 44 44 44 44 42 43 45 48 52 52 56 63 62 57 54 53 51 50 48 46 45 44 44 43 44 44 45 46 46 47 47 47 47 48 49 49 49 50 48 45 43 43 43 42 42 41 40 39 38 38 37 35 34 33 32 32 31 31 31 31 30 28 28 29 29 28 26 24 25 25 24 23 23 23 23 23 23 22
54 54 54 53 52 52 51 51 50 48 46 45 45 45 42 43 43 42 48 52 54 59 60 57 54 53 51 49 47 45 44 43 44 43 43 44 44 45 46 46 46 45 45 46 47 48 50 49 46 45 45 45 45 44 43 42 41 40 39 38 37 36 35 34 34 33 33 33 32 32 31 28 29 30 29 29 27 25 26 26 25 25 24 24 25 25 25 24
54 54 54 54 54 53 53 52 51 49 47 45 46 46 44 45 46 42 44 51 53 55 57 56 54 53 52 49 46 45 45 44 44 43 43 43 43 43 44 44 43 43 43 44 45 46 47 46 44 45 45 45 45 44 43 42 41 40 40 39 38 37 36 36 35 35 34 34 33 33 32 29 29 30 30 30 28 26 27 27 26 26 26 26 27 26 25 25
53 54 55 55 55 54 54 54 53 50 49 47 47 47 45 46 48 45 43 50 56 56 56 56 54 54 54 50 46 46 46 45 45 44 43 42 42 42 42 42 42 42 42 42 43 44 43 42 43 45 45 45 45 44 42 42 41 40 40 40 39 38 38 37 36 36 35 35 34 33 33 30 29 31 31 30 29 27 28 28 28 29 29 28 28 27 27 27
54 55 56 56 56 55 56 55 53 52 50 49 49 48 46 47 50 48 45 48 57 60 57 57 55 54 54 51 48 47 47 47 47 45 44 42 42 41 41 42 42 42 42 42 42 43 44 43 44 45 45 44 44 43 42 42 42 41 40 40 40 39 38 37 37 36 36 36 35 34 35 32 30 31 31 30 30 28 28 29 29 30 30 29 28 28 29 29
56 57 57 57 57 57 56 55 53 53 52 50 51 49 48 48 50 52 49 49 56 62 60 58 58 57 55 52 50 49 49 49 48 46 45 44 43 42 41 41 42 42 42 43 44 44 44 44 45 45 44 44 44 43 42 42 42 42 41 40 40 39 38 38 37 37 37 37 36 35 36 34 30 30 31 30 30 30 30 30 30 30 30 29 29 29 30 30
58 59 59 59 59 58 56 55 54 54 53 51 52 51 50 49 51 53 52 51 56 63 63 60 59 59 57 55 53 51 51 51 49 48 46 45 44 43 43 42 42 42 43 44 45 44 44 44 45 45 44 44 44 42 42 42 42 41 40 40 40 39 39 39 38 39 39 38 38 37 37 36 32 29 30 30 31 31 31 31 31 31 31 30 30 30 31 31
59 59 60 60 59 59 57 55 55 54 54 53 52 53 52 51 52 53 53 55 56 60 64 63 60 60 59 57 56 54 52 51 50 49 47 45 45 44 43 43 42 42 43 44 43 43 42 43 43 43 43 43 42 42 42 42 42 41 41 40 40 40 40 40 40 40 40 39 39 37 37 38 33 28 28 30 31 32 32 32 32 32 32 31 31 31 31 32
59 60 60 61 60 59 58 56 55 55 54 53 53 54 53 52 53 52 54 58 57 56 63 65 63 62 61 59 58 57 55 52 51 50 47 46 45 44 43 43 43 43 43 43 43 42 42 42 43 43 43 43 42 42 43 42 42 42 41 41 41 41 41 41 41 40 40 40 39 38 37 38 35 28 28 30 31 32 32 32 33 33 32 32 32 32 32 32
60 60 60 60 59 59 58 56 56 56 55 54 53 54 54 55 54 54 57 60 57 54 59 65 65 64 63 61 61 60 58 55 52 51 50 48 46 45 44 44 44 44 44 44 44 44 44 44 44 44 44 44 44 44 44 44 43 43 42 42 41 41 41 41 41 40 41 41 39 38 36 37 36 31 28 30 31 31 31 32 33 33 32 33 33 33 33 34
60 61 61 60 59 58 57 57 57 57 56 55 53 53 56 57 56 58 59 58 56 53 56 64 68 66 65 64 62 61 60 58 55 53 52 50 48 47 47 46 46 45 45 45 45 45 45 45 46 45 45 45 45 45 45 44 44 43 43 42 41 41 41 41 41 40 41 41 40 39 37 37 38 33 29 30 31 31 31 31 32 32 32 33 33 34 35 35
60 62 62 62 60 59 59 59 59 58 57 55 53 53 57 59 60 61 59 57 57 55 53 59 67 68 66 65 63 62 61 59 57 55 53 51 50 49 47 47 46 46 45 45 45 46 46 46 46 46 46 46 45 46 45 45 44 43 42 41 40 41 41 41 41 41 42 41 40 39 38 38 38 34 31 31 31 31 31 30 30 31 32 33 33 34 35 36
58 62 63 63 61 61 61 60 60 58 56 55 55 54 57 61 64 62 59 58 58 55 50 54 63 69 67 66 66 64 62 60 58 56 54 52 51 50 48 47 46 45 44 43 43 44 45 45 46 46 46 46 46 46 45 44 42 41 40 39 39 39 40 40 41 41 41 41 41 40 39 39 37 34 33 32 30 30 31 31 31 31 32 33 34 34 35 36
56 59 62 63 63 62 61 60 60 58 55 56 57 57 59 63 64 61 60 60 58 55 52 51 58 67 69 68 67 66 64 63 61 58 56 54 53 52 51 49 48 46 45 44 44 43 43 44 44 44 45 45 44 44 44 42 42 41 40 39 38 38 39 40 40 41 41 41 41 41 40 39 36 34 33 33 31 30 31 32 33 33 33 34 34 35 36 37
56 59 61 63 63 63 61 60 60 59 56 55 58 61 61 61 61 62 62 61 58 56 54 52 54 63 69 70 68 67 66 64 62 61 59 57 55 53 51 49 48 48 47 46 46 45 44 44 43 43 43 43 43 43 43 43 43 43 42 41 40 39 39 40 40 40 40 40 41 40 40 37 35 34 34 34 32 31 31 33 34 35 35 36 36 36 37 38
58 59 60 62 62 61 61 60 60 60 57 55 58 61 59 58 61 64 63 61 59 57 57 56 55 59 65 69 70 69 67 66 64 62 61 58 57 54 52 50 48 47 46 46 46 45 44 44 42 42 42 42 42 42 43 43 43 42 42 41 39 39 39 40 40 40 40 41 41 40 39 37 34 35 35 35 34 33 32 33 34 36 36 37 38 38 38 39
60 60 60 61 61 61 61 60 59 59 58 57 57 56 55 58 63 64 63 62 60 60 60 60 58 58 60 65 69 70 69 68 66 65 63 60 59 57 54 52 51 49 47 47 46 46 44 44 43 42 42 42 42 42 42 41 41 41 41 40 39 40 40 40 40 41 41 41 41 40 38 36 35 35 35 35 35 35 34 33 33 34 35 37 38 38 39 39
60 61 61 61 61 62 61 60 59 59 58 58 55 53 56 62 64 64 63 63 62 61 61 60 60 59 58 61 65 68 70 70 69 67 65 64 62 59 56 54 52 51 50 49 49 48 47 47 46 45 45 44 43 44 44 43 42 42 42 41 41 42 42 41 41 41 41 41 40 39 38 36 35 34 34 35 36 37 37 36 34 33 34 35 37 38 40 40
60 61 61 61 61 61 60 59 59 59 60 58 54 53 57 62 63 63 63 64 63 62 61 60 60 60 59 59 60 64 67 69 69 68 67 66 64 61 58 55 54 52 52 51 50 50 49 49 49 48 47 47 46 46 46 45 44 44 44 44 43 43 43 42 41 41 40 40 40 39 39 38 36 36 35 36 37 37 38 38 37 36 35 36 38 40 41 42
59 60 60 59 60 60 59 58 60 61 59 57 53 52 56 61 63 63 63 64 64 63 61 60 60 60 60 60 60 62 64 66 67 67 67 67 65 63 59 57 55 54 53 53 53 52 51 51 51 51 50 50 49 48 46 45 45 45 44 44 43 42 42 41 41 40 40 40 40 41 41 40 38 37 37 37 37 37 38 38 39 39 38 39 41 42 42 43
55 57 58 59 59 59 59 60 61 60 57 55 53 52 54 60 64 64 64 64 64 63 62 61 60 60 60 60 60 61 62 64 65 66 67 67 66 64 61 58 57 55 55 56 55 54 54 53 53 53 53 52 50 49 47 47 46 46 45 45 44 43 42 43 43 42 41 41 42 43 44 42 40 39 39 38 37 37 38 39 40 40 41 43 44 45 44 45
51 52 54 55 57 58 59 60 60 58 56 54 53 52 52 57 62 64 64 64 64 64 63 61 61 60 60 60 60 61 62 64 65 66 66 66 66 65 63 61 59 58 57 56 55 55 55 55 54 55 54 52 52 51 50 50 49 48 48 46 46 46 45 45 45 44 44 45 45 46 46 44 41 40 40 39 40 40 41 41 42 43 45 46 47 47 47 47
48 48 49 51 54 56 59 60 58 57 56 54 52 53 52 54 59 63 63 63 64 64 64 63 62 61 61 61 60 61 61 63 65 66 66 66 66 65 65 64 62 61 60 59 58 56 56 56 56 56 55 55 55 54 53 52 52 51 50 48 48 48 47 47 47 47 48 48 47 48 48 45 42 42 42 42 43 44 45 46 46 47 48 49 50 49 49 50
47 46 46 49 51 54 57 59 57 56 56 54 53 53 53 53 55 59 62 63 64 64 64 64 63 62 62 61 60 60 60 62 63 64 66 67 67 66 66 66 64 63 62 61 60 59 58 59 59 58 59 59 58 58 57 56 55 53 51 50 50 50 50 51 51 51 52 50 48 50 48 44 43 45 45 46 48 48 49 50 50 50 50 52 52 52 52 53
52 49 48 48 49 51 56 56 53 53 54 54 53 52 52 53 53 55 58 61 63 64 64 63 63 62 61 61 60 60 60 61 61 62 64 66 68 68 69 68 67 66 65 63 62 61 61 61 61 61 62 62 61 60 58 56 55 55 54 53 53 53 54 53 53 54 54 50 50 51 48 46 46 48 49 51 52 52 52 52 52 52 53 55 56 56 55 56
58 55 53 53 52 52 55 56 55 53 52 52 53 52 52 52 51 52 55 57 60 62 63 63 63 62 61 61 61 60 60 60 60 61 61 62 64 66 68 69 69 68 68 67 65 64 63 64 64 64 64 63 62 60 57 55 55 55 54 54 54 55 55 55 57 57 54 53 55 54 51 50 50 50 52 54 55 55 54 55 56 56 56 59 60 60 59 59
60 58 56 56 58 57 55 55 55 55 52 52 53 53 53 53 52 52 52 54 56 59 61 62 62 62 62 61 60 60 60 60 60 60 60 60 61 62 63 65 66 66 66 66 67 66 65 66 66 66 66 65 63 62 62 60 59 57 56 56 55 55 55 56 58 57 54 56 59 56 53 54 53 54 56 55 56 58 57 58 61 61 61 62 63 63 63 62
61 61 58 57 59 60 58 54 53 54 55 55 54 53 54 55 55 53 52 52 53 55 57 59 60 61 61 60 60 60 59 60 60 60 60 60 60 61 61 61 62 63 63 64 66 67 66 67 66 66 66 65 65 65 65 64 63 62 61 61 60 60 60 61 61 59 58 62 62 57 57 58 56 57 58 57 58 60 59 61 64 64 65 64 64 64 64 64
62 62 62 60 59 60 60 57 55 56 57 58 56 54 53 53 54 54 54 53 52 53 53 55 56 58 59 59 59 59 60 60 60 60 60 60 61 61 61 61 62 62 61 61 63 65 67 67 66 67 67 66 66 67 67 66 67 66 65 65 64 64 64 64 63 61 62 64 62 60 62 61 57 58 59 58 60 61 61 63 64 64 65 65 65 66 66 67
64 64 65 64 63 62 62 61 60 60 60 60 59 57 54 53 52 53 54 54 53 52 52 52 54 56 58 59 59 59 59 60 60 59 59 60 60 60 61 61 61 61 61 61 60 62 64 64 65 66 67 68 68 68 68 68 69 69 68 66 66 66 66 66 65 63 64 66 64 63 65 62 58 60 60 59 61 62 63 64 64 64 66 67 68 69 69 70
68 67 67 67 66 66 66 64 62 63 64 62 59 57 56 55 53 53 54 55 55 53 52 52 54 56 57 58 58 58 59 60 60 60 60 60 60 60 60 61 61 61 61 61 61 61 62 62 63 64 66 68 68 68 69 69 70 71 71 69 68 68 68 68 67 66 67 67 66 67 68 62 58 61 62 61 62 62 62 63 64 65 67 68 69 70 70 71
69 70 70 70 69 68 69 69 67 65 65 64 62 60 58 58 57 57 57 57 56 55 54 54 54 56 57 57 57 59 60 60 60 60 61 61 61 61 62 62 62 62 62 62 62 62 62 63 63 64 65 66 66 68 69 69 71 74 73 70 69 70 70 70 69 68 68 68 69 69 67 62 61 64 64 63 63 63 62 63 64 66 67 69 70 70 70 70
Wind_Direction
212 213 216 216 216 217 217 215 214 214 213 215 215 213 214 215 214 211 209 211 213 215 215 212 207 201 195 187 180 177 175 175 177 178 179 183 185 185 185 186 187 187 186 184 182 182 181 180 179 177 175 172 169 167 167 167 166 166 166 167 168 167 168 166 164 174 179 174 171 175 176 174 177 178 175 174 171 166 163 159 152 144 135 127 120 109 98 92
213 213 215 216 216 217 217 215 215 215 214 215 217 214 213 213 213 210 209 211 212 212 212 208 202 195 188 181 177 175 174 176 177 178 181 184 186 186 186 186 187 188 186 184 183 183 182 182 180 179 177 173 170 169 168 169 169 168 167 166 168 170 173 173 172 177 182 179 178 182 182 179 183 186 183 179 178 178 177 177 172 166 160 150 141 133 125 109
213 213 215 215 215 217 217 217 215 216 216 217 218 215 212 211 211 210 209 210 210 208 207 203 196 190 183 178 175 174 175 177 178 180 182 184 186 187 187 187 187 188 187 185 184 184 184 183 182 181 179 176 172 170 170 171 171 171 168 167 169 171 176 181 180 179 182 184 184 188 190 188 190 193 190 185 185 187 187 189 187 183 181 176 168 165 163 156
213 214 215 215 215 216 217 217 216 216 217 218 220 215 211 210 210 210 210 209 207 204 203 198 191 185 180 176 174 175 177 178 180 182 184 184 186 188 188 188 188 188 188 187 186 186 185 184 183 183 181 178 175 173 173 173 174 173 171 169 172 174 177 183 186 184 184 186 190 195 198 198 199 200 197 192 192 197 198 199 199 195 193 193 191 191 192 192
212 213 215 215 214 215 216 217 216 216 217 219 220 215 210 209 209 210 210 208 205 200 197 192 187 182 178 176 175 177 178 179 182 184 185 186 187 188 189 190 190 190 189 188 188 187 187 186 184 184 183 180 178 176 175 175 176 176 174 173 177 180 182 184 187 189 189 190 193 198 202 204 206 206 204 200 199 205 208 207 207 206 203 202 202 205 210 213
212 213 214 214 213 214 216 217 217 216 218 220 221 216 209 208 209 210 210 206 202 197 192 188 183 180 177 177 177 179 180 182 185 186 186 188 188 189 189 191 192 192 190 189 189 188 188 187 186 187 186 184 182 179 177 177 179 180 178 177 182 187 190 188 188 193 195 196 197 200 204 206 208 210 209 207 207 210 213 212 213 215 213 211 210 212 218 222
211 212 213 214 212 213 215 216 218 217 218 220 222 217 209 207 209 210 209 203 199 194 188 185 181 179 179 179 179 181 182 185 187 187 189 189 189 190 191 192 193 193 192 191 190 189 189 188 188 189 188 187 187 184 181 180 182 184 182 182 187 193 197 194 193 199 202 201 202 202 205 208 210 214 214 212 214 218 219 218 217 219 220 219 217 219 222 226
210 212 213 214 212 212 213 216 217 218 218 219 222 218 210 206 209 211 207 201 196 192 187 184 181 181 181 181 182 183 185 188 189 189 191 191 190 191 192 193 193 193 193 192 191 190 190 190 191 190 191 191 191 189 185 183 185 188 188 188 191 197 202 203 200 205 211 210 209 207 207 211 213 217 219 216 218 224 225 224 222 222 224 224 222 223 227 229
209 211 213 214 213 212 213 215 217 218 218 218 221 218 211 207 209 211 206 199 195 191 187 184 183 183 183 184 184 186 188 191 191 191 193 193 192 192 193 195 195 194 194 194 193 192 192 192 193 193 194 195 194 193 190 188 189 193 195 194 195 199 206 210 209 211 218 218 218 215 212 214 216 218 221 220 220 224 226 226 227 226 226 226 225 225 229 232
209 211 213 213 213 212 213 214 216 218 218 217 219 217 212 208 210 212 205 198 195 191 188 186 186 186 186 186 186 189 192 192 193 194 194 194 193 193 194 195 196 195 195 195 194 193 194 195 195 196 197 197 197 196 194 194 195 198 201 200 199 203 208 215 216 217 221 222 223 222 218 217 219 220 222 224 223 225 228 228 230 229 227 226 226 227 229 233
209 211 212 213 213 212 213 214 215 217 217 216 217 217 213 210 211 213 205 197 196 192 190 189 188 188 188 189 188 192 195 194 195 196 196 196 195 194 195 196 196 196 196 196 196 196 197 198 197 198 199 200 199 199 198 199 201 204 207 205 203 205 210 217 220 221 223 225 226 226 224 221 221 222 223 225 227 227 229 230 230 229 226 225 224 224 227 230
209 211 212 214 214 213 213 214 214 215 216 215 217 216 214 211 212 215 205 197 197 195 193 192 191 191 191 190 190 194 196 195 197 198 198 198 197 197 197 198 198 198 198 199 199 199 200 200 200 201 202 202 202 202 202 204 206 210 212 212 211 211 214 219 224 227 227 228 230 229 228 225 223 224 223 224 228 228 229 230 232 232 229 228 224 224 227 228
208 210 212 214 214 214 213 214 215 215 215 214 218 217 214 212 213 216 207 197 198 198 196 195 194 194 193 193 193 195 195 196 198 199 200 200 199 200 200 201 201 201 202 202 203 202 203 203 203 204 204 204 205 205 205 208 211 214 217 219 220 220 221 225 230 233 233 232 234 232 229 227 226 226 223 223 226 228 229 230 232 234 231 229 226 225 227 227
208 210 212 213 214 215 214 215 215 215 214 213 216 218 216 214 214 218 209 197 199 200 199 197 196 196 195 195 197 196 196 196 198 200 201 201 201 202 203 203 204 204 205 205 206 205 206 206 206 206 207 207 208 208 209 212 214 216 219 223 225 226 227 229 233 235 237 236 236 236 231 227 229 229 224 223 226 230 233 233 232 232 228 227 227 226 227 228
208 210 211 213 214 215 215 215 216 216 215 213 214 216 217 216 215 219 211 198 199 201 200 199 198 197 197 198 199 198 197 198 199 200 201 202 203 203 203 204 205 206 207 207 207 207 208 208 209 209 210 210 211 211 213 215 217 219 221 224 228 231 232 233 236 237 238 237 237 238 233 229 231 231 226 225 228 232 235 235 232 232 232 230 230 230 230 229
209 210 211 213 214 215 216 215 216 217 217 215 215 215 216 217 216 219 214 200 198 200 200 200 200 199 199 200 200 199 199 199 200 201 201 202 203 204 204 205 206 207 208 208 209 209 209 210 211 211 212 213 214 214 216 218 220 222 224 227 231 235 237 238 240 240 239 238 237 238 234 230 233 233 229 227 229 233 236 235 234 236 237 234 233 233 232 229
209 210 211 213 213 215 216 216 216 217 217 216 216 215 215 216 215 217 216 203 197 200 199 199 200 201 200 200 200 200 200 201 202 202 203 203 204 205 205 206 207 208 209 210 211 211 211 212 212 213 214 215 216 217 219 221 223 226 229 233 236 239 241 242 242 241 240 239 238 238 235 231 232 232 231 229 229 233 235 235 234 235 234 233 231 231 231 229
210 211 212 213 214 215 216 217 217 217 217 217 216 216 214 215 214 215 217 207 198 198 199 198 199 201 201 199 199 200 201 201 202 203 204 204 204 206 207 208 208 208 210 211 212 213 214 214 214 215 216 217 218 220 223 225 228 232 234 236 238 240 241 242 243 243 243 242 240 239 235 231 231 231 231 231 229 231 234 234 233 232 231 231 229 229 230 230
210 211 212 214 215 215 216 217 218 217 217 218 218 217 214 214 213 213 216 210 200 198 200 200 201 202 201 200 200 200 201 201 202 203 204 205 206 207 209 210 210 210 211 212 213 215 216 217 217 217 218 219 221 224 226 228 230 233 234 236 237 239 240 241 243 243 243 243 242 239 234 231 231 231 231 232 229 229 232 234 233 230 230 230 230 230 231 231
211 211 212 214 215 216 217 218 219 218 217 218 218 218 216 214 213 213 216 213 204 201 202 202 202 202 201 201 200 199 200 200 200 202 204 205 207 208 210 211 212 212 212 213 214 215 217 219 219 220 221 223 225 227 228 229 231 233 235 237 238 240 241 242 243 244 244 244 243 241 236 231 231 231 230 231 230 229 231 232 232 230 230 230 230 233 234 233
211 211 212 214 215 216 217 218 219 219 217 218 219 219 218 215 215 217 217 215 208 203 202 202 202 202 200 199 199 198 198 199 199 200 202 204 206 208 210 212 213 214 214 215 215 216 218 219 220 221 222 223 225 226 228 230 231 233 235 237 239 240 241 242 244 245 245 245 244 242 238 231 231 233 232 232 230 228 230 231 232 232 232 231 230 232 234 235
211 212 213 214 215 216 217 218 219 220 219 218 219 219 217 215 216 218 217 214 210 206 203 201 202 202 200 197 196 197 198 199 200 201 202 203 205 207 209 212 213 215 216 217 218 219 219 219 219 221 222 223 225 226 228 230 232 234 236 238 240 241 241 243 244 245 246 245 244 243 240 232 231 234 234 234 232 228 230 231 231 233 233 231 230 230 233 236
212 212 213 215 216 216 218 218 219 220 220 218 219 219 216 214 215 217 216 213 211 208 204 201 201 201 198 195 196 197 199 200 201 202 203 203 204 206 207 209 212 214 216 218 219 221 221 221 221 222 223 225 226 228 230 232 234 235 238 239 240 241 241 242 243 245 245 245 244 243 241 234 231 235 236 237 235 231 232 232 231 233 233 231 231 232 234 237
212 213 214 215 216 218 219 220 219 220 220 217 217 218 216 215 217 218 217 214 211 210 206 202 200 198 196 195 197 200 201 201 202 204 204 205 206 206 207 208 210 213 215 217 218 219 220 220 222 223 224 226 227 229 231 233 235 236 237 239 240 240 241 242 243 244 245 246 245 244 243 236 232 235 236 239 239 235 234 234 232 232 233 233 233 234 235 237
213 214 215 216 217 218 219 221 220 220 220 218 217 217 216 216 218 219 220 217 212 209 208 203 199 197 196 197 199 202 202 202 203 204 204 206 208 208 209 210 210 211 213 215 217 217 217 217 219 221 222 224 226 228 230 232 233 234 236 237 239 240 241 243 244 244 245 246 245 244 243 238 232 234 237 239 242 240 237 237 235 234 234 235 236 236 237 239
213 214 216 217 218 219 220 221 220 220 220 218 217 217 217 216 219 220 221 221 214 209 208 205 200 197 196 199 201 202 204 203 203 204 205 206 207 208 210 211 211 212 213 215 217 217 217 218 219 220 221 222 224 226 227 230 231 233 234 236 238 239 241 242 243 244 243 243 243 242 243 240 232 233 237 239 242 243 241 240 239 238 237 237 237 238 239 240
214 215 216 217 218 220 221 221 220 220 220 220 217 217 218 217 219 220 220 223 218 210 207 206 203 199 197 199 202 203 204 203 203 205 205 207 208 208 210 211 212 214 215 217 217 217 219 220 221 222 223 223 224 226 227 230 232 233 234 236 238 239 240 241 242 242 242 242 242 241 243 242 234 231 237 240 242 245 245 243 242 242 241 239 238 239 241 243
214 215 216 217 219 221 222 221 221 221 221 221 218 217 219 218 220 222 221 224 221 211 207 206 204 201 200 200 202 204 204 204 205 206 206 207 209 210 211 211 212 215 217 218 219 219 221 222 223 224 224 225 226 227 228 230 231 233 234 235 237 238 239 240 240 240 241 241 241 240 242 244 238 230 235 240 242 245 247 247 246 245 244 243 241 240 242 245
214 215 217 218 219 221 222 221 221 221 221 220 218 218 220 220 220 221 222 224 222 214 209 207 204 203 202 202 203 204 204 204 207 208 208 209 210 211 212 213 214 216 217 217 218 219 221 223 223 224 224 224 225 226 227 229 230 232 233 234 236 237 237 238 239 239 240 241 241 240 241 244 242 232 232 239 242 245 247 249 249 248 247 246 245 244 245 247
214 215 217 219 220 221 221 221 220 220 221 220 218 218 220 221 220 221 223 223 222 217 211 208 207 205 204 203 204 204 204 205 207 208 209 211 211 212 214 215 216 217 218 218 218 218 219 221 222 223 224 224 224 225 226 228 229 231 232 234 235 236 237 238 239 239 241 241 241 241 241 244 244 237 232 236 240 244 246 249 251 251 250 249 248 247 247 249
215 216 218 219 219 221 221 221 220 220 222 220 216 217 219 220 220 221 223 223 223 220 214 210 208 206 206 205 205 205 205 206 207 209 211 211 212 213 214 216 216 218 218 218 219 220 220 221 222 223 223 224 225 226 227 228 229 231 232 234 235 236 237 238 239 239 241 242 242 242 241 242 244 241 235 235 237 240 243 246 250 253 253 252 250 249 249 251
217 217 219 219 219 220 220 220 221 221 222 219 215 216 219 219 220 221 222 223 225 222 216 213 210 208 208 207 207 207 207 208 208 210 212 213 214 215 216 218 219 220 220 219 220 221 222 223 223 223 224 224 226 227 229 230 231 233 234 235 236 237 238 239 240 240 241 242 242 242 242 242 243 244 241 238 237 239 241 243 247 251 253 253 252 252 252 253
218 218 219 220 219 220 220 220 221 220 220 219 215 215 218 220 221 220 220 223 225 222 217 215 213 211 210 210 209 208 209 210 211 212 214 214 215 216 218 220 221 222 223 223 224 224 224 225 225 225 226 226 228 229 231 233 234 236 237 237 238 239 241 241 241 242 242 243 243 243 244 242 242 243 245 244 241 240 242 243 244 246 249 250 252 253 254 254
217 220 219 219 219 220 220 220 219 218 220 221 216 213 217 220 220 219 221 223 224 223 220 217 214 213 213 213 212 211 210 211 211 213 216 217 217 218 218 219 220 221 222 223 225 226 227 227 228 229 229 230 231 232 233 234 235 236 236 237 237 238 240 241 241 242 242 242 243 244 244 243 242 243 246 247 246 243 243 245 245 244 246 248 250 251 252 253
215 218 218 217 219 220 219 219 219 218 221 223 217 213 217 221 220 218 220 222 223 224 222 219 217 215 215 215 215 215 214 213 213 214 216 218 219 219 219 220 221 222 223 224 225 225 226 227 227 229 231 232 233 234 234 234 235 236 236 237 237 238 240 241 242 242 243 243 243 243 244 243 243 244 245 247 249 247 245 246 247 247 247 249 251 251 252 253
214 216 216 217 218 220 220 220 219 219 222 225 221 220 223 224 221 219 220 221 222 224 224 222 220 218 217 218 218 217 217 216 216 217 218 218 219 220 221 223 224 225 226 228 229 228 229 229 228 229 231 231 232 233 234 235 235 236 237 237 239 240 241 242 243 243 243 243 242 242 242 242 243 244 245 247 249 249 248 246 247 249 250 252 255 256 256 257
213 214 216 217 219 220 221 221 221 221 224 227 226 228 229 224 221 220 220 221 221 223 224 224 224 222 220 220 220 220 219 218 218 218 219 220 220 219 220 222 224 226 227 229 231 232 232 233 232 231 233 233 234 235 235 235 236 236 237 237 238 239 240 241 242 242 243 243 242 242 242 242 242 243 244 247 249 251 252 250 248 249 251 253 257 260 261 262
214 215 216 217 219 220 221 222 222 223 226 229 228 230 227 222 222 220 219 221 222 222 223 224 225 225 225 224 224 223 222 221 220 219 219 220 220 219 220 222 224 226 228 229 231 232 232 233 233 232 233 234 234 234 234 234 235 236 236 236 237 239 239 240 243 244 245 246 245 243 242 241 241 243 245 246 249 252 255 256 255 253 253 255 257 260 262 264
216 217 218 219 221 222 222 222 223 225 228 229 228 229 227 222 222 221 220 221 223 223 224 224 225 225 226 227 227 227 227 226 224 222 221 221 221 220 220 223 225 227 230 231 233 233 234 235 235 234 234 235 235 234 234 234 235 236 237 237 237 240 241 242 244 246 248 250 249 246 243 241 241 242 244 247 249 253 257 260 261 260 258 258 259 259 261 262
219 220 222 222 223 223 222 223 225 227 229 227 227 231 229 224 222 222 221 222 223 224 224 224 225 226 226 227 228 229 230 230 228 226 225 223 223 222 222 224 227 229 232 234 234 235 236 236 237 237 237 237 237 237 237 238 238 239 240 241 242 244 246 247 248 249 251 252 252 249 245 242 242 243 245 248 250 254 258 261 264 264 264 263 262 262 262 262
221 222 224 226 226 225 223 224 227 229 228 227 228 232 230 225 224 222 221 222 223 225 225 225 225 226 227 227 228 229 229 231 231 230 228 226 225 226 225 227 229 231 233 235 236 236 238 238 239 239 240 239 240 240 240 241 242 242 243 243 244 245 246 248 248 248 250 251 251 251 246 243 243 245 246 249 251 254 257 260 263 265 266 267 267 267 267 266
218 220 222 225 227 226 225 226 229 230 229 228 230 233 232 228 226 224 223 223 223 224 225 226 226 226 227 227 228 229 229 230 231 231 231 229 227 228 229 230 232 234 237 238 239 239 241 242 242 242 243 242 242 241 241 241 242 242 242 243 244 245 246 248 250 249 250 250 250 252 250 245 245 248 250 252 255 257 259 260 262 264 265 267 268 270 272 272
216 218 218 221 224 224 225 227 229 230 229 228 229 232 233 231 228 227 226 224 224 225 225 226 226 226 227 228 228 228 229 231 231 231 232 231 229 230 231 232 233 235 238 239 240 240 241 242 242 243 243 243 243 242 241 242 242 242 243 244 245 247 248 250 250 250 250 250 250 253 253 249 250 254 256 257 259 260 262 263 263 265 267 268 271 272 273 274
220 219 218 219 221 222 223 226 227 229 230 229 230 231 232 232 231 230 229 227 226 226 226 227 227 226 227 228 229 229 229 231 231 231 232 232 231 231 233 233 234 235 238 239 240 241 242 242 242 242 242 241 241 241 241 241 243 244 245 246 247 248 249 250 250 251 252 253 254 257 256 255 257 259 260 261 262 262 264 266 267 270 271 272 273 273 273 273
222 222 220 219 219 221 223 225 227 229 230 231 232 232 232 232 231 230 231 230 229 228 228 228 228 228 228 228 229 229 229 230 232 232 232 232 232 233 234 235 235 236 238 239 240 241 242 243 242 242 243 243 243 244 244 246 248 248 249 249 250 251 251 253 254 254 255 256 257 259 259 257 258 260 261 263 264 265 267 270 271 272 272 272 272 272 272 273
221 221 220 220 221 222 223 224 226 228 229 231 233 233 233 233 232 231 231 231 231 230 229 229 230 229 229 228 229 230 230 231 232 233 233 234 234 234 235 236 237 237 237 238 239 239 241 241 241 242 243 244 246 247 248 249 250 250 251 252 253 253 254 254 254 254 255 257 257 256 257 257 258 260 262 264 266 269 270 271 271 270 270 271 272 272 273 274
217 219 220 220 222 224 224 224 225 227 228 230 231 233 234 235 234 233 231 231 231 231 231 230 230 231 231 230 230 231 231 231 232 233 233 234 235 235 236 237 238 239 238 239 239 239 240 241 241 242 244 245 246 247 247 247 247 248 248 249 249 251 251 252 253 253 254 255 255 254 256 258 258 260 262 263 266 268 269 270 271 271 271 271 273 275 276 276
213 216 218 219 221 223 224 224 225 227 228 228 229 229 231 234 235 234 233 232 231 231 232 231 231 232 232 232 232 232 233 232 232 233 233 233 234 235 236 237 238 239 239 239 240 240 241 242 242 243 244 245 246 247 247 248 248 248 248 248 248 248 249 250 252 252 253 255 256 256 257 258 258 260 262 263 265 267 268 269 271 272 274 274 275 276 276 276
210 212 215 217 219 220 222 224 225 227 227 227 228 228 229 232 233 234 234 234 233 232 232 232 231 232 233 233 233 233 233 233 233 233 234 234 234 235 235 235 236 238 238 239 240 241 242 243 244 245 245 245 246 248 248 249 249 249 249 250 250 250 251 252 254 255 256 258 258 258 258 258 258 261 264 265 266 267 268 269 270 272 273 274 275 275 275 275
209 210 211 213 216 217 218 220 223 226 227 227 228 230 231 231 232 233 233 234 235 234 233 232 232 232 233 233 233 233 234 234 234 233 233 234 234 234 235 235 236 237 237 238 238 240 242 243 244 245 246 246 246 248 249 249 250 250 250 249 250 251 252 254 256 257 258 259 260 260 260 259 259 263 265 265 266 267 267 268 269 270 271 272 273 274 275 276
208 210 211 211 211 213 214 216 218 221 225 227 229 231 232 232 232 233 234 235 235 235 234 233 233 233 233 233 233 234 234 234 234 233 233 232 233 233 234 235 236 236 237 238 239 239 241 242 243 244 245 246 247 248 249 249 250 249 249 249 250 252 255 257 258 258 259 260 261 261 262 262 262 264 266 265 265 266 266 267 268 268 268 269 271 272 274 275
209 210 212 212 211 211 212 214 215 217 220 225 228 230 231 233 233 234 233 234 235 236 235 233 233 234 234 234 234 235 235 235 235 235 234 234 233 233 233 234 235 236 237 238 239 240 241 241 242 243 244 245 246 246 247 247 247 247 249 251 254 256 257 258 258 258 259 260 261 261 263 264 263 263 263 264 264 264 265 265 265 265 266 268 269 271 273 274
Height
5701 5704 5707 5710 5713 5715 5718 5721 5723 5725 5728 5731 5733 5735 5736 5738 5741 5743 5745 5748 5750 5751 5753 5756 5758 5761 5764 5768 5772 5775 5779 5784 5788 5792 5796 5800 5804 5808 5811 5815 5819 5822 5825 5828 5830 5833 5836 5839 5842 5844 5845 5847 5849 5851 5853 5854 5856 5857 5859 5860 5861 5863 5864 5865 5866 5868 5869 5870 5870 5872 5873 5874 5875 5875 5876 5877 5878 5879 5879 5880 5881 5881 5881 5881 5881 5881 5881 5881
5698 5701 5705 5708 5710 5713 5716 5718 5721 5723 5726 5729 5731 5732 5734 5736 5738 5741 5743 5746 5748 5749 5752 5754 5757 5760 5764 5767 5771 5775 5779 5783 5787 5792 5795 5799 5803 5807 5810 5814 5818 5821 5824 5827 5830 5833 5835 5838 5841 5843 5845 5846 5848 5850 5852 5854 5855 5857 5858 5859 5861 5862 5863 5865 5866 5867 5869 5869 5870 5871 5873 5873 5874 5875 5876 5877 5877 5878 5879 5880 5881 5881 5881 5881 5881 5881 5881 5881
5696 5699 5702 5705 5708 5711 5714 5716 5719 5721 5724 5726 5728 5730 5731 5734 5736 5739 5741 5744 5746 5748 5750 5753 5756 5759 5763 5767 5770 5774 5778 5782 5787 5791 5794 5798 5802 5806 5810 5813 5816 5820 5823 5826 5829 5831 5834 5837 5840 5843 5845 5846 5847 5849 5851 5853 5855 5856 5857 5859 5860 5861 5863 5864 5866 5867 5868 5868 5869 5871 5872 5873 5873 5874 5875 5876 5877 5878 5879 5879 5880 5881 5881 5881 5881 5881 5881 5881
5693 5696 5700 5703 5706 5709 5711 5714 5717 5719 5722 5724 5726 5728 5729 5731 5734 5737 5739 5742 5744 5746 5749 5752 5755 5758 5762 5766 5770 5773 5777 5782 5786 5789 5793 5797 5801 5805 5809 5812 5815 5819 5822 5825 5828 5831 5833 5836 5839 5842 5844 5846 5847 5848 5850 5852 5854 5856 5857 5858 5859 5861 5862 5864 5866 5867 5867 5868 5869 5870 5871 5872 5873 5873 5875 5875 5876 5877 5878 5879 5880 5880 5880 5881 5881 5881 5881 5881
5690 5694 5697 5701 5704 5706 5709 5711 5714 5717 5719 5722 5724 5725 5727 5729 5732 5735 5737 5740 5742 5745 5748 5751 5754 5758 5762 5765 5769 5772 5777 5781 5785 5788 5792 5796 5799 5803 5808 5811 5814 5817 5820 5824 5827 5830 5832 5835 5838 5841 5844 5845 5847 5848 5850 5852 5854 5855 5856 5857 5858 5860 5861 5863 5865 5866 5867 5867 5868 5869 5870 5871 5872 5873 5873 5874 5876 5877 5878 5879 5879 5879 5880 5880 5880 5881 5881 5881
5688 5691 5695 5698 5701 5704 5706 5709 5711 5714 5717 5719 5722 5723 5724 5727 5730 5733 5735 5738 5740 5743 5746 5750 5753 5757 5761 5764 5767 5772 5776 5781 5783 5787 5792 5795 5799 5802 5806 5810 5813 5816 5819 5823 5826 5829 5831 5834 5837 5840 5843 5845 5846 5848 5849 5851 5853 5854 5856 5857 5858 5859 5860 5862 5864 5865 5866 5867 5868 5869 5870 5870 5871 5872 5873 5874 5875 5876 5877 5878 5878 5879 5879 5880 5880 5880 5880 5880
5685 5689 5692 5695 5698 5701 5704 5706 5708 5711 5714 5717 5719 5721 5722 5725 5728 5731 5733 5736 5739 5742 5745 5748 5752 5756 5760 5763 5767 5771 5776 5780 5783 5787 5791 5794 5797 5801 5804 5808 5812 5815 5819 5822 5825 5828 5830 5833 5836 5839 5842 5844 5846 5847 5848 5849 5851 5853 5855 5856 5857 5858 5860 5861 5863 5864 5865 5866 5867 5868 5869 5869 5870 5871 5872 5873 5874 5875 5877 5877 5878 5878 5879 5879 5879 5879 5880 5880
5682 5686 5689 5693 5696 5699 5701 5704 5706 5709 5712 5715 5717 5719 5720 5723 5726 5728 5731 5734 5737 5741 5744 5747 5751 5755 5758 5762 5766 5770 5775 5778 5781 5785 5789 5792 5796 5799 5803 5806 5810 5814 5817 5820 5823 5826 5829 5832 5835 5838 5840 5843 5844 5846 5847 5848 5850 5852 5853 5855 5856 5858 5859 5860 5862 5863 5864 5865 5866 5867 5867 5868 5869 5870 5871 5872 5873 5875 5875 5876 5877 5877 5878 5878 5879 5879 5879 5879
5679 5683 5687 5690 5693 5696 5699 5701 5704 5707 5710 5713 5715 5717 5719 5721 5724 5726 5730 5733 5736 5739 5742 5746 5750 5753 5757 5761 5765 5769 5773 5776 5780 5783 5787 5790 5794 5797 5801 5804 5808 5811 5815 5818 5821 5824 5827 5830 5833 5836 5838 5841 5843 5844 5846 5847 5848 5850 5852 5853 5855 5856 5858 5859 5861 5862 5863 5864 5865 5866 5867 5867 5868 5869 5870 5871 5872 5873 5874 5875 5876 5876 5877 5877 5878 5878 5878 5879
5677 5681 5684 5688 5691 5694 5696 5699 5702 5704 5707 5710 5713 5715 5717 5719 5722 5724 5728 5731 5735 5738 5741 5744 5748 5752 5756 5759 5764 5768 5771 5774 5778 5782 5785 5788 5792 5795 5799 5802 5806 5809 5813 5816 5820 5823 5826 5828 5831 5834 5836 5838 5840 5842 5844 5845 5847 5848 5850 5852 5854 5855 5857 5858 5859 5861 5862 5863 5864 5865 5866 5866 5867 5868 5869 5870 5871 5872 5873 5874 5874 5875 5876 5876 5877 5878 5878 5878
5674 5678 5682 5685 5688 5691 5694 5697 5700 5702 5705 5708 5711 5713 5715 5718 5720 5722 5727 5730 5733 5737 5740 5743 5746 5750 5754 5758 5763 5766 5769 5772 5776 5780 5783 5786 5789 5793 5797 5800 5804 5807 5811 5814 5818 5821 5823 5826 5829 5832 5834 5836 5838 5840 5842 5843 5845 5846 5848 5850 5852 5854 5855 5856 5858 5859 5860 5861 5862 5863 5864 5865 5866 5867 5868 5869 5870 5871 5872 5873 5873 5873 5874 5875 5876 5877 5877 5877
5671 5675 5679 5682 5685 5688 5691 5694 5697 5700 5703 5706 5708 5711 5713 5716 5718 5720 5725 5729 5732 5735 5738 5741 5745 5748 5752 5756 5760 5763 5766 5770 5774 5777 5781 5784 5788 5791 5795 5798 5802 5805 5809 5812 5815 5818 5821 5824 5827 5830 5832 5834 5837 5838 5840 5841 5843 5845 5847 5848 5850 5852 5853 5855 5856 5857 5859 5860 5861 5862 5863 5864 5865 5866 5867 5868 5868 5870 5871 5871 5872 5872 5873 5874 5875 5875 5876 5877
5668 5672 5676 5680 5683 5686 5689 5692 5695 5698 5701 5704 5706 5709 5711 5714 5716 5718 5723 5727 5730 5733 5736 5739 5743 5747 5751 5755 5758 5760 5764 5768 5771 5775 5779 5782 5786 5789 5793 5797 5800 5804 5807 5810 5813 5816 5819 5822 5825 5828 5830 5832 5834 5836 5838 5840 5842 5844 5845 5847 5848 5850 5852 5853 5854 5856 5857 5859 5860 5860 5861 5863 5863 5864 5866 5866 5867 5868 5869 5870 5871 5872 5872 5873 5873 5874 5875 5876
5665 5669 5673 5677 5680 5683 5686 5690 5693 5696 5699 5701 5704 5707 5710 5712 5714 5716 5721 5725 5727 5731 5734 5737 5741 5745 5749 5753 5755 5758 5762 5766 5769 5773 5777 5781 5784 5787 5791 5795 5798 5801 5805 5808 5811 5814 5817 5820 5823 5825 5828 5830 5832 5834 5836 5838 5840 5842 5843 5844 5846 5848 5850 5852 5853 5854 5855 5857 5858 5858 5860 5861 5861 5863 5864 5865 5865 5866 5867 5869 5870 5871 5871 5871 5872 5873 5873 5874
5662 5666 5670 5673 5677 5680 5684 5687 5690 5693 5696 5699 5702 5705 5707 5710 5712 5714 5718 5722 5725 5728 5732 5735 5739 5743 5747 5750 5753 5756 5760 5764 5768 5772 5775 5779 5782 5785 5789 5792 5796 5799 5802 5806 5809 5812 5815 5818 5821 5823 5825 5827 5829 5832 5833 5836 5838 5840 5841 5843 5845 5847 5848 5850 5850 5852 5853 5855 5856 5856 5858 5860 5860 5861 5863 5863 5864 5865 5866 5867 5868 5869 5870 5870 5871 5872 5872 5872
5659 5663 5667 5671 5674 5678 5681 5684 5687 5690 5694 5696 5699 5702 5705 5707 5710 5712 5715 5719 5722 5726 5730 5733 5737 5741 5745 5748 5750 5754 5758 5762 5766 5770 5773 5777 5780 5783 5786 5790 5793 5797 5800 5803 5806 5809 5812 5815 5818 5820 5823 5825 5827 5829 5831 5833 5835 5838 5840 5842 5844 5845 5846 5848 5848 5850 5851 5852 5853 5854 5857 5858 5858 5859 5861 5862 5862 5863 5864 5866 5867 5868 5868 5869 5870 5871 5871 5871
5656 5660 5664 5668 5671 5675 5678 5682 5685 5688 5691 5694 5696 5699 5702 5705 5708 5709 5712 5717 5720 5724 5727 5730 5734 5738 5741 5745 5748 5753 5757 5760 5764 5768 5771 5774 5778 5781 5784 5787 5791 5794 5797 5801 5804 5806 5809 5812 5815 5818 5820 5822 5825 5827 5828 5831 5834 5837 5839 5841 5842 5843 5844 5845 5846 5847 5849 5850 5851 5852 5855 5856 5856 5857 5859 5860 5861 5862 5863 5864 5865 5866 5867 5867 5868 5869 5870 5870
5653 5657 5661 5665 5669 5672 5676 5679 5682 5685 5688 5691 5693 5696 5699 5702 5705 5707 5710 5714 5717 5720 5724 5727 5730 5734 5739 5744 5748 5751 5755 5758 5762 5765 5768 5772 5775 5779 5782 5785 5788 5791 5794 5797 5801 5804 5806 5809 5812 5815 5817 5820 5822 5825 5828 5831 5834 5836 5837 5838 5840 5840 5841 5842 5843 5845 5847 5848 5849 5850 5853 5854 5854 5855 5856 5858 5859 5860 5861 5862 5863 5864 5865 5865 5866 5867 5868 5869
5650 5654 5659 5663 5666 5669 5673 5676 5679 5682 5685 5688 5691 5694 5696 5699 5702 5705 5707 5712 5715 5717 5721 5725 5729 5734 5740 5744 5747 5749 5752 5755 5759 5763 5766 5769 5773 5776 5779 5782 5786 5789 5791 5795 5798 5801 5804 5807 5809 5812 5816 5819 5822 5825 5828 5830 5831 5832 5833 5835 5836 5837 5839 5840 5841 5842 5844 5845 5846 5848 5850 5851 5852 5853 5854 5855 5857 5858 5859 5860 5862 5862 5863 5863 5864 5865 5866 5867
5647 5651 5656 5660 5663 5667 5670 5673 5676 5679 5682 5685 5688 5691 5694 5697 5700 5702 5705 5710 5714 5716 5720 5726 5730 5734 5739 5741 5743 5746 5749 5753 5757 5760 5763 5767 5770 5773 5777 5780 5783 5786 5789 5792 5795 5799 5802 5804 5808 5813 5817 5819 5821 5823 5824 5825 5827 5829 5830 5832 5833 5835 5836 5837 5838 5840 5841 5843 5844 5845 5847 5849 5850 5851 5852 5852 5854 5857 5858 5858 5859 5860 5861 5861 5862 5863 5864 5865
5644 5648 5652 5656 5660 5663 5667 5670 5673 5676 5680 5683 5686 5689 5692 5696 5699 5702 5704 5708 5712 5715 5719 5723 5727 5731 5734 5737 5741 5744 5747 5751 5754 5757 5761 5764 5767 5771 5774 5778 5781 5784 5787 5790 5793 5796 5799 5802 5808 5812 5813 5815 5816 5818 5819 5821 5823 5825 5827 5829 5830 5832 5834 5835 5836 5838 5839 5840 5841 5842 5844 5846 5847 5848 5849 5850 5853 5855 5855 5856 5857 5858 5859 5860 5861 5861 5862 5863
5641 5645 5649 5653 5657 5660 5664 5667 5670 5674 5677 5681 5684 5687 5690 5694 5697 5702 5704 5706 5710 5713 5715 5720 5724 5728 5731 5734 5738 5742 5745 5749 5752 5755 5759 5762 5765 5768 5772 5776 5779 5782 5785 5788 5791 5794 5797 5801 5806 5807 5808 5810 5811 5813 5816 5818 5820 5822 5824 5826 5828 5830 5831 5832 5833 5835 5836 5837 5838 5839 5841 5844 5845 5845 5846 5848 5850 5852 5853 5854 5855 5855 5857 5858 5858 5859 5860 5860
5638 5642 5646 5649 5653 5657 5660 5664 5667 5671 5675 5679 5682 5685 5688 5691 5694 5697 5700 5703 5706 5709 5712 5716 5719 5723 5727 5731 5735 5739 5743 5747 5751 5754 5757 5760 5763 5766 5770 5774 5777 5779 5782 5786 5789 5792 5797 5801 5802 5802 5805 5807 5809 5811 5814 5816 5818 5820 5822 5824 5826 5827 5828 5829 5830 5831 5832 5834 5835 5837 5838 5841 5843 5843 5844 5845 5847 5850 5850 5851 5853 5853 5854 5854 5855 5857 5858 5859
5634 5638 5642 5646 5649 5653 5657 5661 5665 5669 5673 5676 5679 5682 5685 5688 5690 5693 5696 5698 5701 5704 5708 5711 5715 5718 5723 5727 5732 5736 5739 5744 5748 5751 5755 5758 5761 5764 5768 5770 5773 5777 5780 5784 5787 5790 5794 5796 5797 5800 5802 5804 5806 5809 5811 5814 5816 5818 5820 5821 5823 5824 5825 5826 5827 5828 5830 5831 5832 5834 5835 5838 5840 5840 5841 5842 5844 5847 5848 5849 5850 5850 5851 5852 5853 5855 5856 5856
5631 5635 5639 5642 5646 5650 5653 5657 5662 5666 5669 5672 5676 5679 5683 5685 5687 5690 5693 5694 5696 5700 5703 5707 5710 5714 5718 5723 5728 5732 5736 5740 5744 5747 5751 5755 5758 5762 5765 5767 5770 5774 5778 5781 5783 5786 5788 5790 5793 5795 5798 5800 5803 5806 5809 5811 5813 5815 5817 5818 5819 5821 5822 5823 5824 5825 5827 5828 5830 5831 5832 5835 5838 5838 5839 5840 5841 5843 5845 5846 5847 5847 5848 5850 5851 5853 5853 5854
5627 5631 5635 5639 5642 5646 5650 5655 5659 5663 5666 5669 5672 5676 5679 5681 5684 5686 5688 5690 5690 5694 5699 5703 5706 5710 5715 5720 5725 5729 5732 5736 5740 5744 5748 5751 5754 5758 5761 5765 5768 5771 5774 5776 5778 5781 5784 5787 5790 5792 5794 5797 5799 5802 5805 5807 5809 5811 5813 5815 5816 5817 5819 5820 5821 5822 5824 5825 5827 5828 5828 5831 5835 5836 5837 5838 5839 5840 5841 5842 5843 5844 5846 5848 5849 5850 5850 5851
5624 5628 5631 5635 5639 5643 5648 5652 5656 5659 5663 5666 5669 5673 5676 5678 5679 5681 5684 5684 5684 5690 5696 5700 5704 5707 5712 5716 5721 5725 5728 5733 5737 5741 5744 5748 5751 5755 5758 5762 5765 5768 5770 5772 5775 5779 5783 5785 5787 5789 5792 5794 5797 5800 5802 5804 5806 5808 5810 5812 5813 5814 5815 5816 5818 5819 5820 5822 5824 5825 5826 5827 5832 5835 5835 5836 5836 5836 5837 5839 5840 5842 5843 5845 5846 5847 5847 5847
5620 5624 5627 5631 5636 5640 5645 5648 5652 5657 5659 5662 5666 5669 5671 5674 5675 5677 5678 5677 5679 5687 5692 5696 5702 5706 5709 5713 5717 5721 5726 5732 5735 5737 5741 5745 5748 5752 5755 5759 5762 5764 5766 5769 5774 5778 5781 5782 5785 5787 5790 5792 5795 5797 5799 5801 5802 5804 5806 5808 5809 5810 5811 5812 5814 5815 5817 5819 5820 5822 5824 5824 5828 5833 5833 5833 5834 5833 5834 5835 5837 5838 5839 5841 5842 5843 5844 5844
5616 5620 5624 5628 5632 5636 5640 5644 5649 5652 5654 5657 5661 5664 5666 5669 5671 5672 5672 5671 5676 5684 5690 5694 5699 5702 5706 5710 5714 5718 5724 5728 5731 5735 5740 5742 5745 5749 5752 5756 5758 5760 5763 5767 5770 5773 5776 5778 5781 5783 5786 5789 5791 5793 5794 5796 5798 5800 5802 5803 5805 5806 5807 5809 5810 5812 5814 5815 5817 5820 5821 5821 5824 5830 5831 5830 5831 5831 5831 5832 5833 5834 5836 5838 5839 5840 5841 5841
5612 5616 5619 5624 5628 5632 5636 5641 5644 5646 5649 5653 5655 5658 5661 5663 5666 5666 5665 5668 5674 5682 5688 5692 5696 5699 5703 5707 5711 5715 5720 5724 5728 5732 5735 5738 5742 5746 5749 5752 5754 5756 5760 5763 5766 5768 5771 5774 5776 5779 5782 5785 5787 5788 5790 5792 5793 5795 5797 5799 5801 5802 5804 5805 5807 5810 5811 5812 5814 5816 5819 5819 5820 5825 5828 5828 5828 5828 5828 5829 5829 5831 5833 5834 5836 5836 5837 5837
5609 5612 5615 5620 5625 5629 5633 5636 5639 5642 5645 5647 5650 5653 5655 5658 5660 5660 5662 5669 5673 5679 5685 5688 5692 5697 5701 5705 5709 5713 5717 5720 5724 5728 5730 5734 5738 5741 5744 5747 5750 5753 5756 5759 5762 5765 5768 5770 5773 5776 5778 5781 5783 5785 5786 5788 5790 5792 5793 5796 5797 5799 5800 5802 5804 5806 5807 5809 5811 5813 5815 5816 5817 5821 5825 5825 5825 5825 5826 5826 5827 5828 5829 5830 5832 5832 5833 5834
5605 5608 5612 5616 5620 5625 5629 5631 5634 5637 5640 5642 5644 5646 5650 5652 5653 5656 5663 5668 5669 5674 5682 5687 5691 5696 5700 5704 5707 5710 5714 5717 5721 5724 5727 5731 5735 5738 5742 5745 5748 5751 5753 5757 5760 5762 5765 5767 5769 5772 5775 5777 5779 5781 5783 5785 5787 5789 5791 5793 5794 5796 5797 5799 5801 5802 5803 5806 5808 5809 5812 5813 5814 5818 5820 5820 5822 5822 5823 5824 5825 5825 5826 5827 5828 5828 5829 5830
5601 5605 5608 5612 5616 5620 5623 5626 5628 5632 5635 5637 5639 5641 5645 5646 5648 5655 5662 5664 5665 5672 5680 5685 5689 5694 5697 5700 5702 5706 5710 5714 5718 5721 5724 5728 5731 5735 5738 5742 5745 5749 5753 5756 5758 5760 5762 5764 5766 5769 5772 5774 5776 5778 5780 5783 5785 5787 5789 5791 5792 5793 5794 5796 5797 5799 5800 5802 5804 5805 5807 5809 5812 5815 5816 5816 5818 5820 5820 5821 5822 5823 5823 5823 5824 5825 5826 5826
5596 5600 5603 5607 5611 5614 5617 5620 5622 5627 5631 5632 5633 5636 5639 5641 5647 5655 5658 5659 5664 5670 5676 5681 5686 5690 5692 5696 5699 5703 5706 5710 5714 5717 5721 5724 5726 5730 5733 5737 5741 5745 5749 5752 5753 5757 5759 5761 5765 5768 5770 5772 5774 5775 5778 5780 5781 5782 5785 5786 5788 5790 5791 5792 5793 5794 5796 5798 5799 5801 5803 5806 5809 5812 5812 5812 5815 5817 5817 5817 5818 5819 5820 5820 5821 5822 5822 5822
5592 5595 5598 5601 5605 5608 5612 5615 5617 5622 5625 5627 5628 5630 5634 5640 5646 5651 5652 5656 5662 5666 5672 5678 5682 5685 5688 5691 5695 5699 5702 5706 5710 5713 5715 5719 5723 5727 5731 5735 5739 5742 5744 5747 5749 5752 5754 5758 5762 5764 5766 5768 5770 5771 5773 5774 5775 5777 5780 5782 5784 5786 5787 5788 5789 5791 5792 5794 5795 5797 5799 5803 5806 5808 5808 5809 5810 5812 5813 5813 5814 5815 5817 5817 5817 5818 5818 5818
5587 5590 5593 5596 5601 5605 5607 5610 5613 5617 5620 5622 5623 5626 5633 5640 5642 5645 5648 5653 5659 5663 5667 5672 5675 5678 5682 5686 5690 5693 5698 5703 5706 5709 5712 5716 5720 5723 5728 5733 5736 5740 5743 5746 5748 5750 5752 5755 5758 5759 5761 5763 5765 5766 5768 5770 5772 5774 5776 5779 5781 5783 5783 5784 5785 5787 5788 5789 5790 5793 5796 5800 5803 5803 5804 5805 5806 5807 5808 5809 5811 5812 5813 5813 5812 5813 5813 5813
5582 5585 5588 5592 5596 5600 5603 5606 5608 5612 5615 5617 5620 5626 5633 5635 5636 5640 5646 5650 5655 5658 5662 5667 5671 5674 5678 5682 5686 5690 5695 5698 5700 5704 5708 5712 5715 5719 5724 5728 5732 5736 5739 5742 5744 5747 5750 5752 5754 5756 5757 5759 5761 5762 5764 5766 5768 5770 5772 5775 5777 5777 5778 5780 5780 5782 5783 5784 5787 5790 5793 5797 5798 5799 5801 5801 5801 5801 5802 5804 5807 5808 5809 5809 5808 5808 5808 5808
5578 5582 5585 5588 5591 5595 5598 5601 5604 5608 5610 5612 5618 5625 5628 5629 5631 5636 5642 5647 5650 5653 5657 5663 5667 5671 5676 5680 5684 5688 5690 5693 5696 5700 5704 5707 5710 5715 5721 5724 5728 5732 5734 5737 5739 5741 5744 5746 5748 5751 5752 5754 5756 5757 5758 5761 5764 5766 5768 5770 5771 5771 5773 5776 5777 5778 5780 5782 5784 5787 5790 5792 5794 5796 5797 5797 5797 5797 5797 5799 5801 5804 5805 5805 5804 5804 5803 5803
5574 5578 5581 5584 5587 5590 5593 5596 5599 5603 5604 5609 5617 5621 5622 5625 5628 5633 5639 5642 5645 5649 5653 5658 5663 5668 5672 5676 5680 5683 5685 5688 5693 5697 5700 5703 5707 5712 5717 5721 5725 5728 5730 5733 5734 5736 5739 5741 5742 5745 5747 5748 5749 5751 5754 5758 5761 5762 5763 5765 5767 5768 5770 5772 5774 5776 5777 5779 5781 5783 5785 5788 5790 5792 5792 5793 5793 5793 5793 5794 5795 5798 5800 5800 5799 5799 5799 5799
5570 5574 5577 5581 5584 5586 5589 5592 5594 5595 5600 5609 5616 5617 5618 5622 5624 5628 5633 5637 5640 5644 5649 5655 5659 5663 5667 5672 5675 5678 5681 5684 5689 5693 5696 5700 5705 5709 5713 5717 5720 5724 5726 5727 5729 5731 5734 5735 5737 5739 5741 5742 5745 5748 5752 5755 5757 5758 5759 5761 5764 5766 5768 5769 5771 5773 5774 5775 5777 5778 5780 5783 5785 5787 5788 5789 5790 5790 5790 5790 5790 5792 5793 5793 5793 5793 5793 5794
5567 5570 5574 5577 5580 5583 5585 5586 5587 5592 5600 5607 5611 5612 5615 5618 5620 5623 5627 5632 5636 5640 5646 5651 5654 5658 5663 5666 5670 5673 5677 5679 5683 5687 5691 5696 5701 5705 5710 5714 5717 5719 5720 5721 5724 5727 5728 5731 5733 5733 5735 5739 5743 5746 5749 5750 5751 5753 5755 5757 5759 5761 5763 5764 5765 5768 5770 5771 5771 5772 5773 5777 5780 5782 5783 5785 5786 5787 5787 5787 5786 5787 5787 5787 5786 5786 5787 5788
5563 5566 5570 5573 5576 5579 5581 5581 5584 5591 5597 5602 5606 5609 5611 5614 5616 5619 5623 5627 5631 5636 5641 5645 5649 5653 5657 5661 5665 5668 5671 5674 5678 5682 5686 5692 5698 5701 5706 5709 5711 5714 5715 5717 5720 5723 5724 5726 5727 5729 5732 5736 5738 5740 5742 5743 5745 5747 5749 5752 5755 5756 5758 5759 5760 5764 5765 5765 5766 5766 5767 5772 5776 5778 5780 5781 5782 5782 5782 5782 5783 5782 5782 5781 5780 5780 5781 5781
5558 5562 5566 5569 5571 5575 5576 5577 5581 5587 5591 5596 5601 5604 5607 5610 5613 5615 5619 5623 5627 5631 5635 5639 5644 5648 5651 5656 5659 5663 5667 5670 5672 5677 5682 5688 5692 5695 5697 5700 5704 5706 5708 5710 5713 5716 5718 5719 5721 5723 5726 5728 5730 5733 5736 5737 5739 5741 5745 5749 5751 5752 5755 5755 5756 5758 5757 5758 5762 5762 5763 5769 5774 5775 5776 5776 5776 5776 5776 5776 5777 5777 5777 5776 5775 5775 5776 5775
5554 5557 5561 5563 5566 5570 5571 5572 5578 5583 5587 5591 5595 5598 5602 5606 5609 5612 5615 5619 5623 5627 5630 5634 5638 5643 5647 5651 5654 5658 5662 5664 5667 5672 5677 5680 5685 5689 5690 5693 5697 5699 5702 5705 5708 5710 5711 5712 5714 5716 5717 5719 5722 5724 5727 5731 5734 5738 5742 5745 5746 5748 5749 5748 5749 5750 5750 5755 5759 5757 5761 5768 5770 5770 5770 5770 5770 5770 5770 5770 5771 5771 5771 5770 5769 5769 5770 5769
5549 5552 5556 5558 5561 5564 5566 5570 5575 5579 5582 5586 5590 5594 5597 5600 5604 5608 5611 5614 5618 5622 5626 5629 5633 5638 5642 5645 5649 5652 5655 5659 5663 5667 5670 5674 5679 5682 5684 5686 5690 5693 5696 5698 5701 5703 5702 5703 5707 5708 5709 5712 5716 5720 5726 5731 5734 5735 5738 5740 5741 5742 5742 5744 5745 5743 5746 5753 5754 5753 5759 5765 5765 5765 5764 5763 5763 5763 5764 5764 5765 5765 5764 5762 5761 5762 5763 5763
5544 5547 5550 5554 5556 5559 5562 5567 5571 5574 5578 5582 5585 5588 5592 5595 5599 5603 5606 5610 5613 5617 5621 5624 5628 5632 5636 5640 5644 5647 5651 5655 5658 5661 5666 5669 5672 5675 5678 5680 5683 5686 5689 5691 5692 5693 5693 5695 5699 5701 5703 5709 5715 5719 5724 5727 5728 5729 5733 5735 5735 5736 5737 5738 5736 5736 5744 5748 5745 5748 5755 5758 5759 5760 5758 5757 5757 5756 5758 5758 5757 5758 5758 5755 5754 5755 5756 5757
5539 5542 5546 5550 5552 5554 5558 5563 5567 5571 5575 5577 5579 5583 5587 5590 5594 5598 5601 5605 5608 5612 5615 5619 5623 5627 5631 5636 5640 5642 5647 5650 5653 5656 5660 5663 5666 5669 5671 5673 5676 5678 5681 5683 5684 5685 5685 5688 5693 5697 5700 5706 5711 5712 5714 5717 5719 5721 5724 5725 5726 5728 5729 5728 5727 5733 5741 5737 5735 5745 5751 5750 5754 5754 5751 5754 5752 5750 5752 5751 5748 5749 5750 5749 5749 5749 5749 5750
5536 5539 5542 5545 5549 5551 5554 5559 5564 5567 5569 5571 5573 5577 5581 5584 5588 5593 5597 5600 5604 5607 5610 5614 5619 5623 5627 5631 5635 5638 5641 5644 5647 5651 5654 5657 5660 5662 5664 5667 5668 5671 5674 5675 5676 5678 5679 5683 5689 5693 5696 5702 5704 5703 5706 5710 5712 5714 5716 5717 5719 5719 5719 5720 5723 5730 5733 5728 5732 5744 5743 5742 5749 5747 5746 5750 5747 5745 5747 5745 5742 5743 5742 5742 5742 5742 5742 5742
5532 5535 5538 5541 5545 5548 5551 5555 5559 5561 5563 5566 5568 5571 5575 5579 5584 5588 5592 5595 5599 5603 5606 5610 5615 5618 5621 5625 5628 5631 5635 5638 5641 5645 5648 5651 5653 5656 5658 5660 5662 5664 5667 5668 5670 5672 5674 5679 5685 5687 5689 5695 5696 5695 5699 5702 5703 5706 5708 5710 5712 5712 5713 5715 5719 5726 5726 5723 5729 5736 5732 5736 5744 5741 5741 5745 5741 5739 5742 5739 5737 5738 5736 5734 5734 5733 5733 5733
5526 5530 5533 5536 5540 5544 5547 5550 5553 5555 5557 5560 5563 5567 5572 5576 5579 5583 5586 5590 5593 5598 5602 5606 5609 5612 5615 5618 5621 5625 5628 5631 5635 5638 5641 5644 5647 5650 5652 5653 5657 5659 5661 5662 5665 5666 5669 5674 5678 5680 5682 5686 5688 5690 5692 5694 5695 5697 5699 5701 5703 5705 5707 5711 5715 5721 5720 5717 5723 5726 5723 5731 5741 5737 5736 5739 5735 5733 5734 5732 5731 5732 5729 5727 5726 5725 5725 5725
5520 5524 5528 5531 5534 5538 5542 5545 5547 5549 5551 5555 5559 5564 5568 5572 5576 5579 5581 5584 5587 5592 5597 5600 5603 5605 5608 5611 5616 5619 5621 5623 5627 5630 5633 5636 5639 5642 5644 5647 5651 5653 5655 5657 5659 5661 5664 5668 5672 5674 5673 5677 5683 5684 5684 5686 5686 5684 5687 5693 5698 5700 5704 5708 5711 5714 5712 5712 5716 5716 5716 5727 5736 5731 5728 5730 5727 5725 5726 5726 5725 5723 5721 5720 5719 5719 5719 5719
5514 5517 5522 5525 5528 5531 5536 5540 5542 5544 5548 5552 5556 5560 5563 5567 5570 5572 5575 5578 5582 5587 5591 5594 5597 5599 5602 5607 5611 5611 5613 5616 5620 5622 5625 5629 5632 5635 5637 5640 5644 5646 5649 5651 5652 5655 5659 5661 5666 5667 5665 5671 5677 5675 5676 5677 5671 5669 5680 5692 5696 5698 5700 5701 5702 5704 5706 5707 5707 5707 5712 5722 5725 5721 5720 5720 5718 5717 5718 5717 5716 5714 5714 5714 5714 5714 5714 5714